Miscellaneous Local Product
Issued by NWS Hastings, NE

Home | Current Version | Previous Version | Graphics & Text | Print | Product List | Glossary On
Versions: 1 2 3 4 5 6 7 8 9 10 11 12 13 14 15 16 17 18 19 20 21 22 23 24 25 26 27 28 29 30 31 32 33 34 35 36 37 38 39 40 41 42 43 44 45 46 47 48 49 50
000
AXUS43 KGID 231202
MISGRI

GID CWA HOURLY WEATHER ROUNDUP
NATIONAL WEATHER SERVICE HASTINGS NE
700 AM CDT SUN JUL 23 2017

NOTE: "FAIR" INDICATES FEW OR NO CLOUDS BELOW 12,000 FEET WITH NO
SIGNIFICANT WEATHER AND/OR OBSTRUCTIONS TO VISIBILITY.

...SOUTH CENTRAL NEBRASKA...

CITY           SKY/WX    TMP DP  RH WIND       PRES   REMARKS
GRAND ISLAND   CLEAR     64  64 100 SW5       29.99R FOG
HASTINGS       CLEAR     67  64  90 CALM      30.01R FOG
KEARNEY        CLEAR     67  66  97 W3        30.02R FOG
ORD            CLEAR     61  59  93 N3        30.00R FOG
YORK           CLEAR     64  64 100 CALM      29.98R FOG
AURORA         CLEAR     64  64 100 W5        29.99R FOG
LEXINGTON      CLEAR     61  59  94 W3        30.04R FOG
HOLDREGE       CLEAR     65  64  96 CALM      30.03R FOG
HEBRON         PTCLDY    69  67  92 S5        29.99S

...NEBRASKA PANHANDLE...

CITY           SKY/WX    TMP DP  RH WIND       PRES   REMARKS
CHADRON        CLEAR     56  52  86 CALM      30.10R
ALLIANCE       CLEAR     51  47  86 CALM      30.12R
SCOTTSBLUFF    CLEAR     59  53  80 CALM      30.12R
SIDNEY         CLEAR     56  49  77 W6        30.15S

...WESTERN AND NORTH CENTRAL NEBRASKA...

CITY           SKY/WX    TMP DP  RH WIND       PRES   REMARKS
VALENTINE      CLEAR     57  46  66 W5        30.09R
AINSWORTH      CLEAR     62  55  79 NW3       30.08R
ONEILL         CLEAR     64  61  91 N6        30.01R
BROKEN BOW     CLEAR     61  56  83 SW5       30.04R
IMPERIAL       CLEAR     60  54  80 NW7       30.09R
NORTH PLATTE   CLEAR     54  52  93 CALM      30.06R
MCCOOK         CLEAR     59  55  87 CALM      30.05R FOG

...EASTERN NEBRASKA...

CITY           SKY/WX    TMP DP  RH WIND       PRES   REMARKS
NORFOLK        PTCLDY    59  58  96 NW3       29.98R FOG
SO SIOUX CITY  CLEAR     68  67  96 N6        29.95R
TEKAMAH        CLEAR     63  62  97 SW3       29.94R FOG
COLUMBUS       CLEAR     61  60  97 CALM      29.98R FOG
ALBION         CLEAR     60  58  96 N3        29.99S FOG
OMAHA EPPLEY   FOG       70  67  90 N5        29.94S VSB<1/4
OFFUTT AFB     CLEAR     71  70  98 N3        29.94R FOG
MILLARD        CLEAR     71  69  95 CALM      29.94S FOG
LINCOLN        CLEAR     68  66  93 CALM      29.97R
NEBRASKA CITY  CLOUDY    71  71 100 N3        29.96R FOG
BEATRICE       CLOUDY    73  69  89 SW8       29.97R
FALLS CITY     CLOUDY    73  69  87 SW8       29.93S

...NORTHERN KANSAS...

CITY           SKY/WX    TMP DP  RH WIND       PRES   REMARKS
GOODLAND       PTCLDY    57  53  86 W7        30.10S
HILL CITY      FOG       71  71 100 CALM      30.03R VSB 1/4
NORTON         SUNNY     64  63  94 NW7       30.03R FOG
PHILLIPSBURG   FOG       72  72 100 N3        30.01R VSB 1/2
SMITH CENTER   CLEAR     64  63  94 CALM      30.01R FOG
HAYS           CLEAR     66  64  93 CALM      30.01R
RUSSELL        CLEAR     68  66  93 W6        29.99R
CONCORDIA      CLEAR     67  67 100 CALM      29.97F
SALINA         PTCLDY    72  69  90 W6        29.97S
TOPEKA         CLOUDY    71  71 100 CALM      29.93S



USA.gov is the U.S. government's official web portal to all federal, state and local government web resources and services.